Renton, WA

3:28 AM PDT on May 24, 2017 (GMT -0700)
Renton Municipal

Weather History for KRNT - March, 2012

Change the Weather History Date:

Tuesday, March 20, 2012

  Actual Average Record
Temperature  
Mean Temperature 42 °F -  
Max Temperature 46 °F 52 °F 66 °F (1998)
Min Temperature 37 °F 40 °F 32 °F (2006)
Degree Days  
Heating Degree Days 24    
Moisture  
Dew Point 36 °F    
Average Humidity 82    
Maximum Humidity 93    
Minimum Humidity 68    
Precipitation  
Precipitation 0.18 in - - ()
Sea Level Pressure  
Sea Level Pressure 29.80 in    
Wind  
Wind Speed 9 mph (SSE)    
Max Wind Speed 17 mph    
Max Gust Speed 29 mph    
Visibility 10 miles    
Events Rain    
Averages and records for this station are not official NWS values.
T = Trace of Precipitation, MM = Missing Value Source: NWS Daily Summary

Daily Weather History Graph

Daily Weather History Graph

Search for Another Location

Airport or City:

Trip Planner

Search our weather history database for the weather conditions in past years. The results will help you decide how hot, cold, wet, or windy it might be!

Date:

Astronomy

Mar. 20, 2012 Rise Set
Actual Time 7:10 AM PDT 7:22 PM PDT
Civil Twilight 6:39 AM PDT 7:53 PM PDT
Nautical Twilight 6:03 AM PDT 8:29 PM PDT
Astronomical Twilight 5:26 AM PDT 9:06 PM PDT
Moon 6:00 AM PDT (3/20) 5:52 PM PDT (3/20)
Length of Visible Light 13h 13m
Length of Day
12h 11m
Waning Crescent, 3% of the Moon is Illuminated
Mar 20
Waning Crescent
Mar 22
New
Mar 30
First Quarter
Apr 6
Full
Apr 13
Last Quarter

Hourly Weather History & Observations

Time (PDT) Temp. Windchill Dew Point Humidity Pressure Visibility Wind Dir Wind Speed Gust Speed Precip Events Conditions
12:50 AM 41.0 °F 39.0 °F 37.4 °F 87% 29.63 in 6.0 mi ESE 3.5 mph - 0.05 in Rain Light Rain
12:53 AM 41.0 °F 38.0 °F 37.9 °F 89% 29.64 in 7.0 mi ESE 4.6 mph - 0.05 in Rain Light Rain
1:15 AM 41.0 °F 38.0 °F 37.4 °F 87% 29.61 in 9.0 mi ESE 4.6 mph - 0.02 in Rain Light Rain
1:53 AM 41.0 °F 37.1 °F 37.9 °F 89% 29.60 in 10.0 mi SSE 5.8 mph - 0.02 in Rain Light Rain
2:53 AM 41.0 °F 36.4 °F 37.9 °F 89% 29.58 in 10.0 mi SSE 6.9 mph - 0.01 in Rain Light Rain
3:53 AM 42.1 °F 38.4 °F 39.0 °F 89% 29.55 in 10.0 mi SE 5.8 mph - 0.00 in   Overcast
4:53 AM 46.0 °F 39.0 °F 39.0 °F 76% 29.56 in 10.0 mi South 17.3 mph 26.5 mph N/A   Overcast
5:53 AM 45.0 °F 38.9 °F 39.0 °F 80% 29.59 in 10.0 mi South 12.7 mph 21.9 mph 0.00 in   Overcast
6:53 AM 45.0 °F 40.1 °F 37.9 °F 76% 29.63 in 10.0 mi SW 9.2 mph 19.6 mph 0.00 in Rain Light Rain
7:53 AM 43.0 °F 36.8 °F 36.0 °F 76% 29.65 in 10.0 mi South 11.5 mph 27.6 mph 0.01 in   Overcast
8:53 AM 44.1 °F 37.4 °F 35.1 °F 71% 29.66 in 10.0 mi South 13.8 mph 23.0 mph N/A   Mostly Cloudy
9:49 AM 44.6 °F 37.8 °F 35.6 °F 71% 29.69 in 9.0 mi South 15.0 mph 27.6 mph N/A Rain Light Rain
9:53 AM 43.0 °F 36.8 °F 35.1 °F 74% 29.71 in 8.0 mi SSW 11.5 mph 27.6 mph 0.00 in Rain Light Rain
10:13 AM 44.6 °F 38.8 °F 37.4 °F 76% 29.70 in 10.0 mi South 11.5 mph 17.3 mph 0.00 in   Overcast
10:53 AM 44.1 °F 36.8 °F 36.0 °F 73% 29.73 in 10.0 mi South 16.1 mph 28.8 mph 0.01 in Rain Light Rain
11:53 AM 43.0 °F 35.1 °F 35.1 °F 74% 29.79 in 10.0 mi South 17.3 mph 28.8 mph 0.00 in Rain Light Rain
12:53 PM 44.1 °F 38.6 °F 37.9 °F 79% 29.80 in 10.0 mi South 10.4 mph 21.9 mph 0.00 in   Partly Cloudy
1:53 PM 45.0 °F 40.6 °F 36.0 °F 71% 29.81 in 10.0 mi SSW 8.1 mph 18.4 mph 0.00 in Rain Light Rain
2:02 PM 44.6 °F 39.2 °F 35.6 °F 71% 29.80 in 10.0 mi WSW 10.4 mph 16.1 mph 0.00 in Rain Light Rain
2:28 PM 44.6 °F 41.4 °F 37.4 °F 76% 29.81 in 10.0 mi South 5.8 mph 17.3 mph 0.00 in   Mostly Cloudy
2:53 PM 46.0 °F 39.9 °F 36.0 °F 68% 29.83 in 10.0 mi South 13.8 mph 20.7 mph 0.00 in Rain Light Rain
3:14 PM 42.8 °F 34.8 °F 35.6 °F 76% 29.83 in 7.0 mi South 17.3 mph 23.0 mph 0.00 in Rain Light Rain
3:53 PM 42.1 °F 35.7 °F 36.0 °F 79% 29.88 in 10.0 mi South 11.5 mph 20.7 mph 0.01 in   Overcast
4:53 PM 42.1 °F 35.7 °F 36.0 °F 79% 29.90 in 10.0 mi South 11.5 mph 17.3 mph 0.00 in Rain Light Rain
5:53 PM 43.0 °F 38.2 °F 35.1 °F 74% 29.89 in 10.0 mi SSE 8.1 mph - 0.00 in   Overcast
6:53 PM 41.0 °F 35.8 °F 35.1 °F 79% 29.92 in 10.0 mi SSE 8.1 mph - N/A   Overcast
7:14 PM 39.2 °F 31.6 °F 35.6 °F 87% 29.92 in 4.0 mi South 12.7 mph 17.3 mph 0.03 in Rain Light Rain
7:37 PM 39.2 °F 35.9 °F 35.6 °F 87% 29.92 in 10.0 mi South 4.6 mph - 0.03 in Rain Light Rain
7:53 PM 39.9 °F 35.1 °F 36.0 °F 86% 29.94 in 10.0 mi SSE 6.9 mph 17.3 mph 0.03 in Rain Light Rain
8:04 PM 39.2 °F 35.0 °F 37.4 °F 93% 29.92 in 10.0 mi SSE 5.8 mph - 0.00 in Rain Light Rain
8:49 PM 39.2 °F 33.6 °F 35.6 °F 87% 29.94 in 10.0 mi SSE 8.1 mph - 0.00 in   Overcast
8:53 PM 39.9 °F 34.5 °F 36.0 °F 86% 29.96 in 10.0 mi SSE 8.1 mph - 0.00 in   Overcast
9:53 PM 37.0 °F 29.8 °F 35.1 °F 93% 29.97 in 10.0 mi SE 10.4 mph 17.3 mph 0.04 in Rain Light Rain
10:19 PM 37.4 °F 30.8 °F 35.6 °F 93% 29.96 in 10.0 mi SE 9.2 mph - 0.00 in   Overcast
10:49 PM 37.4 °F 30.8 °F 35.6 °F 93% 29.97 in 10.0 mi SSE 9.2 mph - 0.00 in   Overcast
10:50 PM 37.0 °F 29.8 °F 35.1 °F 93% 29.99 in 10.0 mi SSE 10.4 mph - 0.00 in   Mostly Cloudy
11:48 PM 37.4 °F 33.8 °F 35.6 °F 93% 29.99 in 10.0 mi SSE 4.6 mph - N/A   Mostly Cloudy
11:53 PM 37.9 °F 32.7 °F 35.1 °F 89% 30.00 in 10.0 mi SSE 6.9 mph - N/A   Mostly Cloudy